SCP
0 0 0 0 0 0 0 0 0 0 0 0 1 1 1 1 1 0 0 0 1 1 1 1 1 1 1 1 1 1 1 1 1 1 0 0 0 0 0 1 1 1 1
0 0 0 0 0 0 0 0 0 0 0 0 1 1 1 1 1 0 0 0 1 1 1 1 1 1 1 1 1 1 1 1 1 1 1 0 1 1 0 1 1 1 1
0 0 0 0 0 0 0 0 0 0 0 1 1 1 1 1 1 1 0 0 0 0 1 1 1 1 1 1 1 1 1 1 1 1 1 1 1 1 1 1 1 1 1
0 0 0 0 0 0 0 0 0 0 0 1 1 1 1 1 1 1 1 1 1 0 0 1 1 1 1 1 1 1 1 1 1 1 1 1 1 1 1 1 1 1 1
0 0 0 0 0 0 0 0 0 0 0 0 1 1 1 1 1 1 1 1 1 1 1 1 1 1 1 1 1 1 1 0 0 0 0 0 1 1 1 1 1 1 1
0 0 0 0 0 0 0 0 0 0 0 0 0 0 1 1 1 1 1 1 1 1 1 1 1 1 1 1 1 0 0 0 0 0 0 0 0 1 1 1 1 1 1
0 0 0 0 0 0 0 0 0 0 0 0 0 0 1 1 1 1 1 1 1 1 1 1 1 1 1 1 1 1 1 1 0 0 0 0 0 1 1 0 0 1 1
0 0 0 0 0 0 0 0 0 0 0 0 0 0 1 1 1 1 1 1 1 1 1 1 1 1 1 1 1 1 1 1 1 0 0 0 1 0 0 0 0 1 1
0 0 0 0 0 0 0 0 0 0 0 0 0 0 1 1 1 1 1 1 1 1 1 1 1 1 1 1 1 1 1 1 1 0 0 1 1 0 0 0 0 1 1
0 0 0 0 0 0 0 0 0 0 0 0 0 0 0 0 0 1 1 1 1 1 1 1 1 1 1 1 1 1 1 1 1 0 0 1 1 0 0 0 0 1 1
0 0 0 0 0 0 0 0 0 0 0 0 0 0 0 0 0 0 1 1 1 1 0 1 1 1 1 1 1 2 1 1 1 1 1 1 1 1 0 0 0 1 1
0 0 0 0 0 0 0 0 0 0 0 0 0 0 0 0 0 1 1 1 1 1 1 0 1 1 1 1 2 2 1 1 1 1 1 1 1 1 0 0 1 1 1
0 0 0 0 0 0 0 0 0 0 0 0 0 0 0 0 1 1 1 1 1 1 1 1 1 1 1 2 2 2 2 1 1 1 1 1 1 1 1 1 1 1 1
0 0 0 0 0 0 1 1 0 0 0 0 0 0 0 0 1 1 1 1 1 1 1 1 0 1 2 2 3 3 2 2 1 1 1 1 1 1 1 1 1 1 1
0 0 0 0 0 0 1 1 0 0 0 0 0 0 0 0 0 1 1 1 1 1 1 0 0 1 2 3 3 3 3 2 1 1 2 1 1 1 1 1 1 1 2
0 0 0 0 0 0 0 1 0 0 0 0 0 0 0 0 0 0 1 1 1 1 0 0 0 1 2 4 4 4 3 2 2 1 2 1 1 1 1 1 1 1 1
0 0 0 0 0 0 0 0 0 0 0 0 0 0 0 0 0 0 1 1 0 0 0 0 0 1 2 4 5 4 3 2 2 1 1 1 1 1 1 1 1 1 1
0 0 0 0 0 0 0 0 0 0 0 0 0 0 0 0 0 0 0 0 0 0 0 0 0 1 2 3 4 3 3 2 1 1 1 1 1 1 1 1 1 1 0
0 0 0 0 0 0 0 0 0 0 0 0 0 0 0 0 0 0 0 0 0 0 0 0 0 1 2 2 2 2 2 1 1 1 0 0 0 1 1 1 0 0 0
0 0 0 0 1 0 0 0 0 0 0 0 0 0 0 0 0 0 0 0 0 0 0 0 0 0 1 1 1 1 1 1 1 1 0 0 0 1 1 0 0 0 0
0 0 0 0 1 0 0 1 1 1 1 1 0 0 0 0 0 0 0 0 0 0 0 0 0 0 0 0 0 0 0 0 1 1 1 1 1 1 1 1 0 0 0
0 0 0 0 0 0 1 1 1 1 1 1 1 1 0 0 0 0 0 0 0 0 0 0 0 0 0 0 0 0 0 0 0 1 1 1 1 1 1 1 0 0 0
0 0 0 0 0 0 1 1 1 1 1 1 1 1 0 0 0 0 0 0 0 0 0 0 0 0 0 0 0 0 0 0 0 0 0 1 0 0 1 0 0 0 0
0 0 0 0 0 0 1 1 1 1 1 1 1 1 1 0 0 0 0 0 0 0 0 0 0 0 0 0 0 0 0 0 0 0 0 0 0 0 0 0 0 0 0
0 0 0 0 0 0 1 1 1 1 1 1 1 1 1 0 0 0 0 0 0 0 0 0 0 0 0 0 0 0 0 0 0 0 0 0 0 0 0 0 0 0 0
0 0 0 0 0 0 1 1 1 1 1 1 1 1 1 1 0 0 0 0 0 0 0 0 0 0 0 0 0 0 0 0 1 0 0 0 0 0 0 0 0 0 1
Wind_Speed
4 5 6 5 5 5 5 5 5 6 6 6 6 6 5 4 4 4 5 5 5 5 5 5 5 6 7 7 7 7 7 7 7 7 6 6 6 6 6 4 3 5 8
4 4 5 4 5 5 5 5 5 6 6 6 7 6 6 4 4 4 4 5 5 5 5 6 6 7 8 8 7 7 7 7 7 6 5 6 6 6 5 4 3 5 7
4 4 4 4 5 5 5 5 5 5 6 6 7 7 6 6 5 5 4 5 6 6 6 7 7 8 8 8 8 7 6 6 6 4 2 4 6 7 5 5 5 5 5
4 4 5 5 5 5 5 5 5 5 6 6 6 7 7 7 6 5 6 6 7 6 7 7 8 8 9 9 8 7 7 6 5 1 2 4 5 8 6 5 5 5 5
4 4 6 5 4 5 5 5 6 5 5 6 6 7 7 7 7 7 7 7 6 6 7 7 8 8 8 9 8 8 7 6 4 1 4 4 5 7 6 5 5 5 5
4 4 6 4 5 5 5 6 6 6 5 6 6 6 7 8 8 8 8 7 7 7 7 7 8 8 8 8 8 8 7 5 2 4 4 4 5 7 6 5 5 5 5
4 4 5 5 4 5 5 5 6 6 5 6 6 6 8 8 8 9 8 8 8 8 8 8 8 8 9 8 8 8 6 3 3 4 4 5 7 8 7 6 5 6 5
4 4 5 6 5 5 5 6 6 5 6 6 6 7 7 7 8 8 8 8 8 8 8 8 8 8 8 8 8 8 7 3 5 5 5 6 8 8 7 7 6 6 5
4 4 4 4 6 6 6 6 6 6 6 6 7 8 8 7 7 8 8 8 8 8 8 8 9 8 8 8 8 8 7 5 4 4 5 5 8 8 8 8 7 7 6
4 4 4 4 4 4 5 6 6 6 6 7 7 7 6 5 6 6 7 8 8 8 8 9 9 9 8 8 8 6 4 2 4 5 4 6 8 7 8 8 7 7 7
4 4 4 4 4 4 4 5 4 5 5 3 5 5 1 3 4 4 8 8 8 8 9 9 9 8 7 7 7 4 2 3 5 5 5 8 7 7 8 8 8 7 7
4 4 4 4 4 4 3 3 3 3 4 3 4 4 3 4 4 4 9 8 8 8 8 8 7 5 2 4 5 2 3 5 5 4 6 9 7 8 8 8 8 8 7
4 4 4 4 4 4 3 3 2 2 3 3 4 4 3 3 3 3 3 5 5 5 5 5 3 3 4 4 3 4 4 4 3 4 7 9 8 8 9 8 8 8 8
4 4 4 4 4 4 4 3 2 2 2 3 3 4 3 2 3 3 2 3 3 3 4 3 3 5 5 5 4 5 5 4 4 4 7 10 9 8 8 9 8 8 8
3 3 3 3 4 4 4 2 3 3 3 3 3 3 4 2 2 3 3 3 3 3 3 3 3 5 5 5 5 5 5 6 5 5 5 10 10 9 8 9 9 8 7
3 3 3 3 3 3 3 3 4 3 3 3 3 3 4 3 3 3 3 3 3 3 3 3 4 4 4 4 5 5 5 5 5 5 5 7 10 10 9 9 9 9 8
3 3 3 2 2 3 4 4 3 3 3 3 3 3 4 4 3 3 3 3 3 3 3 3 4 4 4 4 5 5 5 5 5 5 5 4 5 8 10 9 9 8 8
2 3 3 2 2 3 3 3 3 3 3 3 3 3 4 3 3 3 2 3 3 2 2 2 2 3 4 4 4 4 4 4 5 5 4 4 4 4 7 9 9 9 8
3 3 4 3 3 3 3 3 3 3 3 3 3 3 3 4 3 3 3 2 3 2 2 2 3 3 4 4 4 3 4 4 4 4 5 5 5 4 4 6 7 8 8
3 3 4 4 3 3 2 2 2 2 2 2 2 3 3 3 3 3 2 3 2 2 2 3 4 3 3 3 3 4 3 3 3 4 4 4 4 5 5 4 3 5 7
4 4 4 4 4 3 2 1 1 1 1 2 2 3 2 2 2 3 2 2 2 2 2 3 3 4 3 2 2 3 3 4 4 3 3 3 4 4 4 4 4 3 3
5 4 4 4 3 3 2 1 1 1 1 2 1 2 2 2 2 2 2 2 2 2 2 2 2 1 2 0 0 1 2 3 3 3 2 2 3 3 4 5 4 4 4
5 5 4 4 4 3 3 2 2 2 2 2 2 1 1 1 2 2 2 2 2 2 2 1 2 1 1 1 1 2 1 1 1 2 3 2 3 2 3 3 4 4 4
5 5 5 4 4 4 3 2 2 1 1 1 1 1 2 1 1 1 2 2 2 1 2 1 1 1 1 1 1 1 3 2 1 2 2 2 2 3 3 2 3 3 3
6 5 4 4 4 4 3 3 2 1 1 1 1 2 2 2 1 2 1 2 2 1 2 1 1 1 1 1 0 1 1 0 3 2 1 1 1 1 2 2 2 2 3
5 5 5 5 4 4 4 4 3 2 2 2 2 2 2 2 2 2 2 2 2 2 2 2 2 2 1 1 1 1 1 1 1 1 1 1 1 1 1 1 1 1 2
Wind_Direction
29 27 34 8 22 26 29 31 38 44 50 53 56 63 63 59 62 73 79 81 86 86 88 92 92 97 98 96 99 99 98 101 100 102 100 97 98 97 97 105 136 119 108
28 35 49 16 30 30 30 34 37 43 48 53 57 59 57 53 57 76 88 88 92 88 90 93 94 95 96 94 93 93 93 94 92 98 111 117 106 99 95 86 55 87 104
41 43 68 45 33 34 34 38 43 44 48 51 55 57 51 50 55 65 90 89 90 87 89 93 95 95 93 89 87 86 86 89 90 99 150 122 109 100 92 88 96 104 106
48 46 46 39 34 38 40 45 52 51 49 51 55 56 52 56 58 66 83 89 90 90 90 91 93 94 91 88 82 84 85 84 81 125 128 87 92 94 92 87 94 102 102
55 47 59 34 39 44 47 52 56 56 55 58 58 57 54 59 58 67 83 89 90 91 92 93 93 94 91 87 83 81 81 79 81 76 70 74 78 86 87 87 90 95 96
66 55 68 42 43 48 49 53 56 54 52 57 59 56 57 61 63 65 75 83 88 87 89 90 90 92 90 86 82 80 79 76 108 74 75 77 79 86 84 82 80 89 95
63 59 67 58 46 49 50 51 51 53 51 57 59 57 62 65 67 68 71 76 80 83 87 86 87 89 87 83 78 77 77 62 71 78 74 73 74 77 77 79 80 88 94
62 57 69 91 71 56 52 52 50 51 55 59 60 61 63 67 70 73 75 78 84 84 81 82 85 84 83 80 75 72 64 24 82 78 74 73 73 76 78 82 83 85 87
65 62 60 72 95 99 74 56 54 53 54 55 58 64 66 67 71 75 76 79 85 87 84 85 85 84 82 78 74 72 68 38 62 76 78 75 77 78 80 80 77 80 82
75 68 63 65 60 72 94 82 65 62 59 63 65 64 70 87 89 87 88 83 85 87 87 85 84 82 81 77 71 68 66 64 56 68 66 77 78 77 80 80 80 82 82
77 67 59 61 60 55 63 81 89 93 80 92 99 91 98 83 84 95 78 77 82 84 84 83 81 82 86 87 76 65 57 63 64 57 60 71 78 79 81 80 81 84 84
86 75 62 56 57 60 58 70 66 77 79 62 64 70 65 68 71 74 90 85 84 88 93 87 91 104 100 88 95 99 68 73 67 64 63 66 72 76 81 80 80 79 82
88 78 66 58 59 61 68 63 60 64 68 65 63 69 68 78 93 85 99 111 105 104 93 101 104 74 70 66 57 64 59 61 68 65 62 63 67 72 76 77 77 76 75
98 80 69 54 61 65 67 68 62 67 68 65 58 60 65 66 72 78 83 84 87 83 78 72 72 76 71 72 69 69 69 66 66 70 65 61 61 67 74 73 73 74 74
120 107 83 61 58 65 68 66 73 64 57 70 59 53 66 70 76 85 82 76 76 78 85 80 76 78 75 67 64 64 66 65 65 71 73 65 58 60 67 70 69 69 73
141 123 114 95 83 78 81 75 71 68 74 63 65 60 70 77 79 79 79 79 76 74 73 83 87 87 82 78 73 69 68 73 69 71 71 79 69 58 58 64 65 66 70
146 136 116 97 98 90 81 70 68 65 69 70 68 56 68 69 79 86 79 85 85 86 84 78 91 94 94 91 83 73 67 63 66 62 58 58 75 72 59 56 56 59 65
168 140 128 139 120 104 97 89 78 74 75 73 72 63 67 76 78 81 85 91 92 84 84 87 97 101 96 88 81 76 76 73 66 64 63 60 55 59 69 59 49 48 52
180 155 146 148 134 118 110 102 81 78 75 73 73 71 65 67 74 84 83 86 95 95 91 89 87 88 93 87 82 75 72 70 66 66 66 58 56 52 57 77 66 51 46
186 170 151 150 156 132 135 123 109 84 79 71 66 73 65 64 75 84 98 96 92 96 88 87 89 89 88 92 87 79 73 75 68 62 60 62 55 50 45 45 62 74 59
183 182 164 172 161 153 150 156 128 108 97 86 73 78 84 75 85 87 88 96 89 94 92 93 94 100 96 94 109 106 103 83 72 70 59 57 62 50 48 49 42 39 69
180 180 169 165 162 151 144 143 132 116 105 97 101 99 94 90 83 97 107 108 113 107 107 103 108 109 101 58 312 208 154 139 103 79 77 64 56 59 49 46 49 46 36
185 182 182 171 159 154 153 154 156 147 167 155 137 117 97 99 99 105 105 111 120 132 120 131 146 161 146 111 351 319 304 86 108 112 71 71 61 53 53 48 46 41 44
184 183 184 170 161 157 161 174 178 191 159 140 131 135 137 128 134 134 138 139 135 131 135 160 155 170 187 154 107 353 352 11 265 147 149 91 58 55 52 55 49 44 42
177 178 183 172 170 170 176 174 212 203 168 156 168 159 157 137 162 163 174 174 168 168 172 163 158 184 195 201 194 170 97 330 280 275 181 168 148 103 68 53 60 46 45
177 177 180 183 180 182 197 198 210 203 207 203 206 183 179 164 179 183 189 193 200 199 194 189 191 194 215 218 245 240 256 257 259 271 245 206 209 110 111 73 54 57 45